GORIZONT 15 [-]

Last updated on Oct. 21, 2020, 5:57 a.m. UTC

1 19017U 88028A   20294.88721483 -.00000188  00000-0  00000-0 0  9990
2 19017  15.1653 346.9285 0034482 137.5575 223.0322  0.97829289 99299
UTC
Height (km)
Latitude
Longitude
Inclination
Orbital Period
UTC large
Height (km)
Speed (km/s)
/
Latitude / Longitude
Inclination (degrees)
Orbital Period (minutes)
Azimuth
Elevation
Range (km)
Doppler Factor
iOS Compass Heading
iOS Angle

Next 30 passes for location: Hong Kong

Rise time Rise Azimuth (degrees) Set time Set Azimuth (degrees) Duration Max altitude (degrees)

No matching passes for this satellites